TimeMST,TemperatureF,Dew PointF,Humidity,Sea Level PressureIn,VisibilityMPH,Wind Direction,Wind SpeedMPH,Gust SpeedMPH,PrecipitationIn,Events,Conditions,WindDirDegrees,DateUTC
12:53 AM,59.0,37.9,46,30.10,10.0,North,3.5,-,N/A,,Clear,360,2012-11-30 07:53:00
1:53 AM,57.0,39.0,51,30.08,10.0,Calm,Calm,-,N/A,,Clear,0,2012-11-30 08:53:00
2:53 AM,54.0,39.9,59,30.08,10.0,Calm,Calm,-,N/A,,Clear,0,2012-11-30 09:53:00
3:53 AM,53.1,39.0,59,30.07,10.0,Calm,Calm,-,N/A,,Clear,0,2012-11-30 10:53:00
4:53 AM,53.1,39.0,59,30.07,10.0,Calm,Calm,-,N/A,,Clear,0,2012-11-30 11:53:00
5:53 AM,51.1,39.0,63,30.08,10.0,Calm,Calm,-,N/A,,Clear,0,2012-11-30 12:53:00
6:53 AM,52.0,39.0,61,30.11,10.0,Calm,Calm,-,N/A,,Clear,0,2012-11-30 13:53:00
7:53 AM,53.1,39.9,61,30.13,10.0,Calm,Calm,-,N/A,,Clear,0,2012-11-30 14:53:00
8:53 AM,59.0,39.9,49,30.14,10.0,Calm,Calm,-,N/A,,Clear,0,2012-11-30 15:53:00
9:53 AM,63.0,39.9,43,30.14,10.0,Calm,Calm,-,N/A,,Clear,0,2012-11-30 16:53:00
10:53 AM,66.9,39.9,37,30.13,10.0,South,3.5,-,N/A,,Clear,180,2012-11-30 17:53:00
11:53 AM,69.1,39.0,33,30.10,10.0,SSW,3.5,-,N/A,,Clear,210,2012-11-30 18:53:00
12:53 PM,72.0,41.0,33,30.06,10.0,SW,4.6,-,N/A,,Clear,230,2012-11-30 19:53:00
1:53 PM,73.0,42.1,33,30.03,10.0,SSW,5.8,-,N/A,,Clear,210,2012-11-30 20:53:00
2:53 PM,73.9,42.1,32,30.02,10.0,WSW,5.8,-,N/A,,Clear,240,2012-11-30 21:53:00
3:53 PM,73.0,42.1,33,30.02,10.0,Calm,Calm,-,N/A,,Clear,0,2012-11-30 22:53:00
4:53 PM,72.0,43.0,35,30.02,10.0,Calm,Calm,-,N/A,,Clear,0,2012-11-30 23:53:00
5:53 PM,70.0,43.0,38,30.04,10.0,Calm,Calm,-,N/A,,Clear,0,2012-12-01 00:53:00
6:53 PM,66.9,43.0,42,30.05,10.0,WNW,3.5,-,N/A,,Clear,300,2012-12-01 01:53:00
7:53 PM,64.9,44.1,47,30.06,10.0,Calm,Calm,-,N/A,,Clear,0,2012-12-01 02:53:00
8:53 PM,63.0,44.1,50,30.06,10.0,Calm,Calm,-,N/A,,Clear,0,2012-12-01 03:53:00
10:53 PM,60.1,45.0,57,30.05,10.0,Calm,Calm,-,N/A,,Clear,0,2012-12-01 05:53:00
11:53 PM,57.9,44.1,60,30.05,10.0,Calm,Calm,-,N/A,,Clear,0,2012-12-01 06:53:00